RYR363C LEMI-EGHH

Flight info

Callsign RYR363C
Flight time 2h 2m
Altitude 38000
Route ALT N851 MITOS N608 COMPI Y90 USKAR DCT MOPAS DCT GIROM DCT AGN DCT SECHE DCT UVELI DCT CNA DCT MANAK UY110 ORIST Y110 THRED
Aircraft B738/M-SDE3FGILRWY/SB1

Departure

Time 2026-04-21 23:36
Airport Region of Murcia International Airport (LEMI)

Arrival

Time 2026-04-22 01:38
Airport Bournemouth Airport (EGHH)
Time Latitude Longitude Altitude Speed Heading
2026-04-21 23:07 37.80409 -1.13053 646 ft 0 kts 315°
2026-04-21 23:26 37.80401 -1.13043 646 ft 4 kts 319°
2026-04-21 23:26 37.80379 -1.13022 648 ft 4 kts 331°
2026-04-21 23:26 37.80355 -1.13010 646 ft 4 kts 354°
2026-04-21 23:26 37.80330 -1.13014 650 ft 4 kts 38°
2026-04-21 23:27 37.80326 -1.13018 650 ft 0 kts 45°
2026-04-21 23:29 37.80327 -1.13017 650 ft 1 kts 45°
2026-04-21 23:30 37.80354 -1.12981 647 ft 9 kts 45°
2026-04-21 23:30 37.80398 -1.12926 646 ft 9 kts 45°
2026-04-21 23:30 37.80440 -1.12872 646 ft 9 kts 45°
2026-04-21 23:30 37.80455 -1.12805 646 ft 8 kts 107°
2026-04-21 23:31 37.80418 -1.12748 646 ft 9 kts 135°
2026-04-21 23:31 37.80402 -1.12674 647 ft 9 kts 68°
2026-04-21 23:31 37.80460 -1.12593 648 ft 17 kts 45°
2026-04-21 23:31 37.80562 -1.12461 648 ft 25 kts 46°
2026-04-21 23:32 37.80686 -1.12301 650 ft 25 kts 45°
2026-04-21 23:32 37.80804 -1.12152 646 ft 23 kts 46°
2026-04-21 23:32 37.80913 -1.12007 646 ft 22 kts 46°
2026-04-21 23:32 37.81023 -1.11872 647 ft 22 kts 41°
2026-04-21 23:33 37.81127 -1.11742 649 ft 21 kts 54°
2026-04-21 23:33 37.81220 -1.11610 651 ft 20 kts 49°
2026-04-21 23:33 37.81317 -1.11490 650 ft 19 kts 45°
2026-04-21 23:33 37.81395 -1.11386 649 ft 11 kts 57°
2026-04-21 23:34 37.81390 -1.11318 650 ft 6 kts 127°
2026-04-21 23:34 37.81357 -1.11280 648 ft 7 kts 153°
2026-04-21 23:34 37.81321 -1.11274 647 ft 9 kts 176°
2026-04-21 23:34 37.81245 -1.11281 648 ft 12 kts 203°
2026-04-21 23:35 37.81184 -1.11351 647 ft 12 kts 226°
2026-04-21 23:35 37.80971 -1.11625 645 ft 81 kts 225°
2026-04-21 23:35 37.80415 -1.12341 647 ft 145 kts 225°
2026-04-21 23:35 37.79608 -1.13388 926 ft 175 kts 226°
2026-04-21 23:36 37.78702 -1.14507 1610 ft 187 kts 216°
2026-04-21 23:36 37.77555 -1.15486 2110 ft 208 kts 215°
2026-04-21 23:36 37.76357 -1.16558 2760 ft 207 kts 216°
2026-04-21 23:36 37.75223 -1.17581 3770 ft 194 kts 216°
2026-04-21 23:37 37.74139 -1.18553 4693 ft 191 kts 216°
2026-04-21 23:37 37.73065 -1.19542 5517 ft 192 kts 220°
2026-04-21 23:37 37.72062 -1.20659 6291 ft 193 kts 223°
2026-04-21 23:37 37.71065 -1.21814 6999 ft 196 kts 223°
2026-04-21 23:38 37.70055 -1.22981 7665 ft 198 kts 223°
2026-04-21 23:38 37.69044 -1.24143 8275 ft 200 kts 223°
2026-04-21 23:38 37.68008 -1.25333 8848 ft 202 kts 223°
2026-04-21 23:38 37.66948 -1.26550 9225 ft 215 kts 224°
2026-04-21 23:39 37.66156 -1.28197 9506 ft 224 kts 261°
2026-04-21 23:39 37.66336 -1.30060 10302 ft 212 kts 296°
2026-04-21 23:39 37.67289 -1.31424 10897 ft 210 kts 330°
2026-04-21 23:39 37.68704 -1.31884 11268 ft 220 kts
2026-04-21 23:40 37.70206 -1.31258 11422 ft 240 kts 35°
2026-04-21 23:40 37.71378 -1.29667 11576 ft 259 kts 57°
2026-04-21 23:40 37.72371 -1.27657 11653 ft 282 kts 58°
2026-04-21 23:40 37.73435 -1.25462 11642 ft 307 kts 58°
2026-04-21 23:41 37.74617 -1.23058 11666 ft 336 kts 58°
2026-04-21 23:41 37.75889 -1.20514 11688 ft 348 kts 57°
2026-04-21 23:41 37.77205 -1.17923 12308 ft 352 kts 57°
2026-04-21 23:41 37.78532 -1.15325 13194 ft 351 kts 57°
2026-04-21 23:42 37.79863 -1.12725 13959 ft 354 kts 56°
2026-04-21 23:42 37.81451 -1.10321 14637 ft 359 kts 44°
2026-04-21 23:42 37.83286 -1.08161 15335 ft 362 kts 42°
2026-04-21 23:42 37.85174 -1.06024 16012 ft 366 kts 41°
2026-04-21 23:43 37.87081 -1.03868 16680 ft 370 kts 41°
2026-04-21 23:43 37.89001 -1.01676 17321 ft 373 kts 42°
2026-04-21 23:43 37.90929 -0.99450 17948 ft 377 kts 42°
2026-04-21 23:43 37.93021 -0.97420 18535 ft 381 kts 30°
2026-04-21 23:44 37.95356 -0.95807 19159 ft 384 kts 27°
2026-04-21 23:44 37.97739 -0.94256 19774 ft 386 kts 26°
2026-04-21 23:44 38.00146 -0.92705 20333 ft 390 kts 27°
2026-04-21 23:44 38.02574 -0.91132 20882 ft 394 kts 27°
2026-04-21 23:45 38.05020 -0.89532 21430 ft 397 kts 27°
2026-04-21 23:45 38.09948 -0.86269 22501 ft 402 kts 27°
2026-04-21 23:45 38.12436 -0.84608 22991 ft 406 kts 27°
2026-04-21 23:46 38.14945 -0.82929 23471 ft 409 kts 27°
2026-04-21 23:46 38.17470 -0.81236 23936 ft 412 kts 27°
2026-04-21 23:46 38.20010 -0.79530 24401 ft 415 kts 27°
2026-04-21 23:46 38.22571 -0.77809 24838 ft 418 kts 27°
2026-04-21 23:47 38.25149 -0.76076 25263 ft 421 kts 27°
2026-04-21 23:47 38.27747 -0.74327 25673 ft 424 kts 27°
2026-04-21 23:47 38.30360 -0.72567 26067 ft 427 kts 27°
2026-04-21 23:47 38.32995 -0.70791 26464 ft 430 kts 27°
2026-04-21 23:48 38.35644 -0.69004 26837 ft 432 kts 27°
2026-04-21 23:48 38.38312 -0.67203 27211 ft 435 kts 27°
2026-04-21 23:48 38.40958 -0.65415 27567 ft 438 kts 27°
2026-04-21 23:48 38.43690 -0.63567 27939 ft 440 kts 27°
2026-04-21 23:49 38.46402 -0.61731 28259 ft 443 kts 27°
2026-04-21 23:49 38.49133 -0.59881 28538 ft 447 kts 27°
2026-04-21 23:49 38.51847 -0.58041 28857 ft 449 kts 28°
2026-04-21 23:49 38.54610 -0.56166 29199 ft 450 kts 28°
2026-04-21 23:50 38.57387 -0.54279 29435 ft 455 kts 28°
2026-04-21 23:50 38.60190 -0.52374 29684 ft 458 kts 28°
2026-04-21 23:50 38.63010 -0.50454 29974 ft 460 kts 28°
2026-04-21 23:50 38.65835 -0.48531 30317 ft 460 kts 28°
2026-04-21 23:51 38.68666 -0.46601 30616 ft 462 kts 28°
2026-04-21 23:51 38.71500 -0.44667 30978 ft 461 kts 28°
2026-04-21 23:51 38.74323 -0.42739 31414 ft 458 kts 28°
2026-04-21 23:51 38.77129 -0.40821 31833 ft 456 kts 28°
2026-04-21 23:52 38.79931 -0.38904 32171 ft 456 kts 28°
2026-04-21 23:52 38.82728 -0.36989 32484 ft 456 kts 28°
2026-04-21 23:52 38.85528 -0.35070 32758 ft 457 kts 28°
2026-04-21 23:52 38.88334 -0.33144 33051 ft 457 kts 28°
2026-04-21 23:53 38.91114 -0.31236 33592 ft 450 kts 28°
2026-04-21 23:53 38.93868 -0.29343 33947 ft 449 kts 28°
2026-04-21 23:53 38.96637 -0.27439 34074 ft 453 kts 28°
2026-04-21 23:53 38.99418 -0.25524 34321 ft 453 kts 28°
2026-04-21 23:54 39.02191 -0.23613 34674 ft 451 kts 28°
2026-04-21 23:54 39.04942 -0.21715 35061 ft 447 kts 28°
2026-04-21 23:54 39.07681 -0.19825 35374 ft 446 kts 28°
2026-04-21 23:54 39.10417 -0.17934 35582 ft 447 kts 28°
2026-04-21 23:55 39.13162 -0.16036 35790 ft 448 kts 28°
2026-04-21 23:55 39.15903 -0.14139 36060 ft 447 kts 28°
2026-04-21 23:55 39.18634 -0.12246 36332 ft 445 kts 28°
2026-04-21 23:55 39.21364 -0.10353 36528 ft 446 kts 28°
2026-04-21 23:56 39.24100 -0.08454 36714 ft 447 kts 28°
2026-04-21 23:56 39.26835 -0.06554 36909 ft 447 kts 28°
2026-04-21 23:56 39.29567 -0.04654 37144 ft 446 kts 28°
2026-04-21 23:56 39.32299 -0.02753 37342 ft 446 kts 28°
2026-04-21 23:57 39.35059 -0.00913 37505 ft 446 kts 23°
2026-04-21 23:57 39.37981 0.00433 37674 ft 446 kts 16°
2026-04-21 23:57 39.40963 0.01526 37886 ft 445 kts 15°
2026-04-21 23:57 39.43956 0.02581 37998 ft 447 kts 15°
2026-04-21 23:58 39.46966 0.03641 37991 ft 449 kts 15°
2026-04-21 23:58 39.52978 0.05806 37996 ft 447 kts 15°
2026-04-21 23:59 39.58939 0.08003 37996 ft 444 kts 15°
2026-04-21 23:59 39.64860 0.10204 37998 ft 441 kts 15°
2026-04-22 00:00 39.70801 0.12416 38011 ft 447 kts 15°
2026-04-22 00:00 39.76790 0.14648 38011 ft 454 kts 15°
2026-04-22 00:01 39.82933 0.16941 38008 ft 458 kts 15°
2026-04-22 00:01 39.89080 0.19241 38004 ft 461 kts 15°
2026-04-22 00:02 39.95251 0.21553 37999 ft 462 kts 16°
2026-04-22 00:02 40.01416 0.23867 37998 ft 461 kts 16°
2026-04-22 00:03 40.07569 0.26176 37997 ft 459 kts 15°
2026-04-22 00:03 40.13697 0.28479 37997 ft 457 kts 16°
2026-04-22 00:04 40.19796 0.30777 37997 ft 455 kts 16°
2026-04-22 00:04 40.25866 0.33068 37998 ft 453 kts 16°
2026-04-22 00:05 40.31909 0.35353 38000 ft 451 kts 16°
2026-04-22 00:05 40.37929 0.37639 37999 ft 450 kts 16°
2026-04-22 00:06 40.43941 0.39929 38004 ft 450 kts 16°
2026-04-22 00:06 40.49949 0.42222 38002 ft 450 kts 16°
2026-04-22 00:07 40.55969 0.44497 38001 ft 451 kts 13°
2026-04-22 00:07 40.62189 0.45213 38001 ft 451 kts 355°
2026-04-22 00:08 40.68360 0.43967 38006 ft 454 kts 349°
2026-04-22 00:08 40.74614 0.42436 38012 ft 460 kts 349°
2026-04-22 00:09 40.80997 0.40905 38007 ft 465 kts 349°
2026-04-22 00:09 40.87389 0.39420 38002 ft 468 kts 350°
2026-04-22 00:10 40.93772 0.37956 38000 ft 470 kts 350°
2026-04-22 00:10 41.00215 0.36480 38007 ft 470 kts 350°
2026-04-22 00:11 41.06666 0.34997 37993 ft 470 kts 350°
2026-04-22 00:11 41.13101 0.33513 37999 ft 469 kts 350°
2026-04-22 00:12 41.19520 0.32030 38001 ft 467 kts 350°
2026-04-22 00:12 41.25915 0.30549 38000 ft 466 kts 350°
2026-04-22 00:13 41.32292 0.29069 37997 ft 465 kts 350°
2026-04-22 00:13 41.38655 0.27590 38004 ft 464 kts 350°
2026-04-22 00:14 41.45004 0.26111 38000 ft 463 kts 350°
2026-04-22 00:14 41.51353 0.24629 38001 ft 463 kts 350°
2026-04-22 00:15 41.57696 0.23146 38003 ft 463 kts 350°
2026-04-22 00:15 41.64038 0.21660 38003 ft 462 kts 349°
2026-04-22 00:16 41.70374 0.20172 37999 ft 462 kts 349°
2026-04-22 00:16 41.76710 0.18682 38002 ft 462 kts 349°
2026-04-22 00:17 41.83045 0.17188 38002 ft 462 kts 349°
2026-04-22 00:17 41.89384 0.15691 38002 ft 463 kts 349°
2026-04-22 00:18 41.95724 0.14190 38001 ft 463 kts 349°
2026-04-22 00:18 42.02068 0.12686 38001 ft 463 kts 349°
2026-04-22 00:19 42.08417 0.11177 38001 ft 463 kts 349°
2026-04-22 00:19 42.13695 0.09920 38001 ft 464 kts 349°
2026-04-22 00:20 42.20060 0.08402 38002 ft 465 kts 349°
2026-04-22 00:20 42.27473 0.06630 38006 ft 466 kts 349°
2026-04-22 00:21 42.33864 0.05098 38001 ft 467 kts 349°
2026-04-22 00:21 42.39227 0.03811 38007 ft 467 kts 349°
2026-04-22 00:22 42.45639 0.02269 37999 ft 468 kts 349°
2026-04-22 00:22 42.52055 0.00722 37999 ft 469 kts 349°
2026-04-22 00:23 42.58493 -0.00833 38006 ft 470 kts 349°
2026-04-22 00:23 42.64945 -0.02394 37999 ft 472 kts 349°
2026-04-22 00:24 42.71434 -0.03968 38008 ft 475 kts 349°
2026-04-22 00:24 42.77905 -0.05541 38000 ft 477 kts 349°
2026-04-22 00:25 42.84449 -0.07135 37995 ft 479 kts 349°
2026-04-22 00:25 42.91008 -0.08736 38017 ft 478 kts 349°
2026-04-22 00:26 42.97494 -0.10322 37991 ft 468 kts 349°
2026-04-22 00:26 43.03850 -0.11880 37997 ft 462 kts 349°
2026-04-22 00:27 43.10183 -0.13436 38009 ft 464 kts 349°
2026-04-22 00:27 43.16548 -0.15003 38002 ft 466 kts 349°
2026-04-22 00:28 43.22934 -0.16579 38003 ft 467 kts 349°
2026-04-22 00:28 43.29327 -0.18159 37998 ft 467 kts 349°
2026-04-22 00:29 43.35717 -0.19742 38002 ft 467 kts 349°
2026-04-22 00:29 43.42104 -0.21328 37999 ft 466 kts 349°
2026-04-22 00:30 43.48482 -0.22915 38002 ft 465 kts 349°
2026-04-22 00:30 43.54852 -0.24504 38001 ft 465 kts 349°
2026-04-22 00:31 43.61205 -0.26091 38000 ft 464 kts 349°
2026-04-22 00:31 43.67509 -0.27670 38001 ft 463 kts 349°
2026-04-22 00:32 43.73846 -0.29260 38002 ft 462 kts 349°
2026-04-22 00:32 43.80175 -0.30852 38000 ft 462 kts 349°
2026-04-22 00:33 43.86499 -0.32446 38003 ft 462 kts 349°
2026-04-22 00:33 43.92820 -0.34043 38001 ft 462 kts 349°
2026-04-22 00:34 43.99137 -0.35641 38001 ft 461 kts 349°
2026-04-22 00:34 44.05456 -0.37245 38002 ft 461 kts 349°
2026-04-22 00:35 44.11773 -0.38850 38001 ft 461 kts 349°
2026-04-22 00:35 44.18089 -0.40460 38001 ft 462 kts 349°
2026-04-22 00:36 44.24410 -0.42074 38002 ft 462 kts 349°
2026-04-22 00:36 44.30727 -0.43690 38002 ft 462 kts 349°
2026-04-22 00:37 44.37048 -0.45311 38001 ft 462 kts 349°
2026-04-22 00:37 44.43368 -0.46936 38002 ft 462 kts 349°
2026-04-22 00:38 44.49691 -0.48565 38001 ft 462 kts 349°
2026-04-22 00:38 44.55966 -0.50184 38001 ft 462 kts 349°
2026-04-22 00:39 44.62287 -0.51820 38002 ft 462 kts 349°
2026-04-22 00:39 44.68605 -0.53458 38001 ft 462 kts 349°
2026-04-22 00:40 44.74924 -0.55100 38002 ft 462 kts 349°
2026-04-22 00:40 44.81239 -0.56745 38001 ft 462 kts 349°
2026-04-22 00:41 44.87555 -0.58394 38002 ft 461 kts 349°
2026-04-22 00:41 44.93866 -0.60045 38001 ft 461 kts 349°
2026-04-22 00:42 45.00180 -0.61700 38001 ft 461 kts 349°
2026-04-22 00:42 45.06494 -0.63360 38002 ft 461 kts 349°
2026-04-22 00:43 45.12808 -0.65023 38001 ft 461 kts 349°
2026-04-22 00:43 45.19118 -0.66688 38002 ft 461 kts 349°
2026-04-22 00:44 45.25433 -0.68359 38001 ft 461 kts 349°
2026-04-22 00:44 45.31743 -0.70033 38002 ft 461 kts 349°
2026-04-22 00:45 45.38056 -0.71710 38002 ft 461 kts 349°
2026-04-22 00:45 45.44365 -0.73391 38002 ft 461 kts 349°
2026-04-22 00:46 45.50678 -0.75076 38002 ft 462 kts 349°
2026-04-22 00:46 45.56989 -0.76765 38001 ft 462 kts 349°
2026-04-22 00:47 45.63304 -0.78459 38002 ft 462 kts 349°
2026-04-22 00:47 45.69617 -0.80156 38001 ft 462 kts 349°
2026-04-22 00:48 45.75929 -0.81857 38002 ft 462 kts 349°
2026-04-22 00:48 45.82202 -0.83551 38001 ft 462 kts 349°
2026-04-22 00:49 45.88515 -0.85260 38002 ft 462 kts 349°
2026-04-22 00:49 45.94827 -0.86973 38001 ft 462 kts 349°
2026-04-22 00:50 46.01138 -0.88689 38002 ft 462 kts 349°
2026-04-22 00:50 46.07451 -0.90410 38001 ft 462 kts 349°
2026-04-22 00:51 46.13759 -0.92134 38002 ft 462 kts 349°
2026-04-22 00:51 46.19997 -0.94282 37993 ft 461 kts 338°
2026-04-22 00:52 46.25539 -0.98842 37999 ft 460 kts 321°
2026-04-22 00:52 46.30501 -1.04677 38000 ft 460 kts 320°
2026-04-22 00:53 46.35457 -1.10544 38001 ft 460 kts 321°
2026-04-22 00:53 46.40444 -1.16369 38001 ft 461 kts 321°
2026-04-22 00:54 46.45441 -1.22184 38001 ft 461 kts 321°
2026-04-22 00:54 46.50437 -1.28012 38001 ft 461 kts 321°
2026-04-22 00:55 46.55427 -1.33850 38001 ft 461 kts 321°
2026-04-22 00:55 46.63326 -1.41739 38012 ft 461 kts 334°
2026-04-22 00:56 46.69134 -1.45704 38002 ft 461 kts 335°
2026-04-22 00:56 46.74893 -1.49690 38000 ft 461 kts 334°
2026-04-22 00:57 46.80667 -1.53787 38001 ft 461 kts 334°
2026-04-22 00:57 46.86526 -1.57598 37993 ft 462 kts 343°
2026-04-22 00:58 46.92846 -1.59108 38013 ft 461 kts 356°
2026-04-22 00:58 46.99262 -1.59632 37999 ft 462 kts 356°
2026-04-22 00:59 47.05675 -1.60218 38001 ft 462 kts 356°
2026-04-22 00:59 47.12092 -1.60882 38001 ft 462 kts 355°
2026-04-22 01:00 47.18502 -1.61579 38001 ft 462 kts 355°
2026-04-22 01:00 47.24903 -1.62457 38001 ft 462 kts 354°
2026-04-22 01:01 47.31305 -1.63345 38001 ft 462 kts 354°
2026-04-22 01:01 47.37707 -1.64216 38002 ft 462 kts 354°
2026-04-22 01:02 47.44112 -1.65128 38001 ft 462 kts 354°
2026-04-22 01:02 47.50510 -1.66049 38001 ft 462 kts 354°
2026-04-22 01:03 47.56911 -1.66968 38001 ft 462 kts 354°
2026-04-22 01:03 47.63266 -1.67880 38003 ft 462 kts 354°
2026-04-22 01:04 47.69666 -1.68800 38001 ft 462 kts 354°
2026-04-22 01:04 47.76064 -1.69722 38000 ft 462 kts 354°
2026-04-22 01:05 47.82464 -1.70647 38002 ft 462 kts 354°
2026-04-22 01:05 47.88865 -1.71574 38001 ft 462 kts 354°
2026-04-22 01:06 47.95266 -1.72504 38001 ft 462 kts 354°
2026-04-22 01:06 48.01666 -1.73436 38002 ft 462 kts 354°
2026-04-22 01:07 48.08068 -1.74300 37998 ft 462 kts 357°
2026-04-22 01:07 48.14494 -1.74462 38005 ft 462 kts 360°
2026-04-22 01:08 48.20926 -1.74430 38000 ft 462 kts 360°
2026-04-22 01:08 48.27357 -1.74445 38002 ft 462 kts 359°
2026-04-22 01:09 48.32704 -1.74497 38002 ft 462 kts 359°
2026-04-22 01:09 48.39138 -1.74576 38001 ft 462 kts 359°
2026-04-22 01:10 48.45571 -1.74655 38001 ft 462 kts 359°
2026-04-22 01:10 48.52007 -1.74733 38002 ft 462 kts 359°
2026-04-22 01:11 48.58441 -1.74809 38001 ft 462 kts 359°
2026-04-22 01:11 48.64897 -1.74886 37482 ft 467 kts 359°
2026-04-22 01:12 48.68124 -1.74925 36936 ft 462 kts 359°
2026-04-22 01:12 48.71342 -1.74964 36311 ft 462 kts 359°
2026-04-22 01:12 48.74552 -1.75002 35662 ft 461 kts 359°
2026-04-22 01:12 48.77768 -1.75041 34962 ft 462 kts 359°
2026-04-22 01:13 48.80986 -1.75080 34258 ft 463 kts 359°
2026-04-22 01:13 48.84209 -1.75118 33539 ft 464 kts 359°
2026-04-22 01:13 48.87442 -1.75157 32796 ft 465 kts 359°
2026-04-22 01:13 48.90673 -1.75196 32245 ft 462 kts 359°
2026-04-22 01:14 48.93876 -1.75184 31685 ft 459 kts
2026-04-22 01:14 48.97050 -1.75078 31173 ft 455 kts
2026-04-22 01:14 49.00198 -1.74935 30661 ft 451 kts
2026-04-22 01:14 49.03319 -1.74786 30154 ft 447 kts
2026-04-22 01:15 49.06410 -1.74646 29654 ft 443 kts
2026-04-22 01:15 49.09476 -1.74516 29146 ft 439 kts
2026-04-22 01:15 49.12510 -1.74394 28635 ft 435 kts
2026-04-22 01:15 49.15523 -1.74278 28128 ft 431 kts
2026-04-22 01:16 49.18506 -1.74166 27624 ft 427 kts
2026-04-22 01:16 49.21468 -1.74055 27122 ft 424 kts
2026-04-22 01:16 49.24399 -1.73945 26623 ft 420 kts
2026-04-22 01:16 49.27310 -1.73835 26126 ft 417 kts
2026-04-22 01:17 49.30201 -1.73726 25622 ft 413 kts
2026-04-22 01:17 49.33065 -1.73617 25139 ft 410 kts
2026-04-22 01:17 49.35910 -1.73509 24649 ft 407 kts
2026-04-22 01:17 49.38694 -1.73403 24167 ft 404 kts
2026-04-22 01:18 49.41493 -1.73297 23680 ft 401 kts
2026-04-22 01:18 49.44274 -1.73191 23196 ft 398 kts
2026-04-22 01:18 49.47038 -1.73085 22713 ft 396 kts
2026-04-22 01:18 49.49778 -1.72980 22213 ft 393 kts
2026-04-22 01:19 49.52501 -1.72876 21749 ft 390 kts
2026-04-22 01:19 49.55207 -1.72773 21272 ft 388 kts
2026-04-22 01:19 49.57895 -1.72670 20786 ft 385 kts
2026-04-22 01:19 49.60561 -1.72759 20308 ft 382 kts 353°
2026-04-22 01:20 49.63173 -1.73428 19843 ft 379 kts 349°
2026-04-22 01:20 49.65755 -1.74224 19367 ft 377 kts 348°
2026-04-22 01:20 49.68318 -1.75033 18897 ft 375 kts 348°
2026-04-22 01:20 49.70863 -1.75825 18432 ft 372 kts 348°
2026-04-22 01:21 49.73397 -1.76599 17967 ft 370 kts 348°
2026-04-22 01:21 49.75920 -1.77356 17500 ft 367 kts 349°
2026-04-22 01:21 49.78423 -1.78101 17050 ft 365 kts 349°
2026-04-22 01:21 49.80924 -1.78842 16386 ft 368 kts 349°
2026-04-22 01:22 49.83438 -1.79585 15875 ft 367 kts 349°
2026-04-22 01:22 49.85937 -1.80324 15412 ft 364 kts 349°
2026-04-22 01:22 49.88414 -1.81057 14954 ft 361 kts 349°
2026-04-22 01:22 49.90872 -1.81786 14500 ft 358 kts 349°
2026-04-22 01:23 49.93312 -1.82510 14044 ft 356 kts 349°
2026-04-22 01:23 49.95733 -1.83229 13603 ft 353 kts 349°
2026-04-22 01:23 49.98135 -1.83944 13151 ft 350 kts 349°
2026-04-22 01:23 50.00542 -1.84434 12698 ft 348 kts 358°
2026-04-22 01:24 50.02948 -1.84221 12268 ft 345 kts
2026-04-22 01:24 50.05333 -1.83837 11827 ft 343 kts
2026-04-22 01:24 50.07696 -1.83469 11395 ft 340 kts
2026-04-22 01:24 50.10049 -1.83130 10969 ft 338 kts
2026-04-22 01:25 50.12382 -1.82806 10548 ft 335 kts
2026-04-22 01:25 50.14661 -1.82373 10395 ft 325 kts 11°
2026-04-22 01:25 50.16789 -1.81542 10249 ft 315 kts 15°
2026-04-22 01:25 50.18886 -1.80566 10108 ft 305 kts 17°
2026-04-22 01:26 50.20860 -1.79622 9978 ft 296 kts 17°
2026-04-22 01:26 50.22803 -1.78703 9853 ft 288 kts 16°
2026-04-22 01:26 50.24694 -1.77822 9733 ft 280 kts 16°
2026-04-22 01:26 50.26550 -1.76969 9475 ft 277 kts 16°
2026-04-22 01:27 50.28396 -1.76127 9210 ft 275 kts 15°
2026-04-22 01:27 50.30233 -1.75318 8936 ft 273 kts 11°
2026-04-22 01:27 50.32110 -1.75350 8645 ft 271 kts 343°
2026-04-22 01:27 50.33829 -1.76485 8420 ft 267 kts 333°
2026-04-22 01:28 50.35470 -1.77813 8215 ft 263 kts 332°
2026-04-22 01:28 50.37071 -1.79139 8040 ft 258 kts 332°
2026-04-22 01:28 50.38678 -1.80401 7920 ft 259 kts 335°
2026-04-22 01:28 50.40303 -1.81688 7791 ft 264 kts 329°
2026-04-22 01:29 50.41884 -1.83195 7712 ft 267 kts 328°
2026-04-22 01:29 50.43465 -1.84739 7655 ft 267 kts 327°
2026-04-22 01:29 50.45094 -1.86109 7626 ft 266 kts 343°
2026-04-22 01:29 50.46941 -1.86329 7403 ft 272 kts
2026-04-22 01:30 50.48790 -1.85744 7259 ft 267 kts 11°
2026-04-22 01:30 50.50593 -1.85167 6965 ft 260 kts 11°
2026-04-22 01:30 50.52322 -1.84615 6620 ft 250 kts 11°
2026-04-22 01:30 50.53996 -1.84080 6332 ft 236 kts 11°
2026-04-22 01:31 50.55545 -1.83610 6192 ft 218 kts
2026-04-22 01:31 50.57023 -1.83455 5840 ft 211 kts 360°
2026-04-22 01:31 50.58468 -1.83554 5390 ft 210 kts 353°
2026-04-22 01:31 50.59895 -1.83990 4953 ft 208 kts 343°
2026-04-22 01:32 50.61255 -1.84745 4525 ft 207 kts 336°
2026-04-22 01:32 50.62545 -1.85733 4093 ft 205 kts 330°
2026-04-22 01:32 50.63759 -1.86870 3815 ft 201 kts 327°
2026-04-22 01:32 50.64925 -1.88105 3540 ft 203 kts 324°
2026-04-22 01:33 50.66061 -1.89424 3313 ft 203 kts 322°
2026-04-22 01:33 50.67166 -1.90802 3105 ft 202 kts 320°
2026-04-22 01:33 50.68245 -1.92223 2870 ft 203 kts 319°
2026-04-22 01:33 50.69300 -1.93659 2641 ft 197 kts 318°
2026-04-22 01:34 50.70308 -1.95056 2414 ft 190 kts 318°
2026-04-22 01:34 50.71278 -1.96412 2186 ft 183 kts 318°
2026-04-22 01:34 50.72212 -1.97725 1980 ft 176 kts 317°
2026-04-22 01:34 50.73117 -1.98970 1786 ft 169 kts 324°
2026-04-22 01:35 50.74201 -1.99397 1611 ft 165 kts 16°
2026-04-22 01:35 50.75086 -1.98291 1521 ft 169 kts 51°
2026-04-22 01:35 50.75847 -1.96842 1273 ft 171 kts 58°
2026-04-22 01:35 50.76195 -1.95094 1077 ft 162 kts 78°
2026-04-22 01:36 50.76472 -1.93451 849 ft 150 kts 74°
2026-04-22 01:36 50.76738 -1.91890 665 ft 146 kts 75°
2026-04-22 01:36 50.76994 -1.90319 508 ft 149 kts 76°
2026-04-22 01:36 50.77259 -1.88740 410 ft 148 kts 74°
2026-04-22 01:37 50.77527 -1.87157 263 ft 149 kts 75°
2026-04-22 01:37 50.77791 -1.85575 108 ft 149 kts 75°
2026-04-22 01:37 50.78039 -1.84059 42 ft 125 kts 75°
2026-04-22 01:37 50.78192 -1.83138 43 ft 58 kts 75°
2026-04-22 01:38 50.78235 -1.82834 42 ft 13 kts 109°
2026-04-22 01:38 50.78189 -1.82753 44 ft 7 kts 182°
2026-04-22 01:38 50.78154 -1.82790 44 ft 8 kts 224°
2026-04-22 01:38 50.78118 -1.82933 45 ft 17 kts 266°
2026-04-22 01:39 50.78110 -1.83118 42 ft 17 kts 243°
2026-04-22 01:39 50.78049 -1.83270 45 ft 16 kts 240°
2026-04-22 01:39 50.78000 -1.83426 44 ft 14 kts 239°
2026-04-22 01:39 50.77940 -1.83493 45 ft 9 kts 186°
2026-04-22 01:40 50.77885 -1.83482 45 ft 7 kts 172°
2026-04-22 01:40 50.77848 -1.83468 43 ft 5 kts 139°
2026-04-22 01:40 50.77843 -1.83420 45 ft 3 kts 94°
2026-04-22 01:40 50.77843 -1.83396 45 ft 1 kts 87°
2026-04-22 01:41 50.77844 -1.83383 45 ft 1 kts 87°
2026-04-22 01:41 50.77844 -1.83374 45 ft 0 kts 87°